Albuquerque, NM

3:46 AM MDT on September 26, 2017 (GMT -0600)
Albuquerque International Sunport

Weather History for KABQ - January, 2015

Change the Weather History Date:

Saturday, January 10, 2015

  Actual Average Record
Temperature  
Mean Temperature 38 °F 36 °F  
Max Temperature 44 °F 46 °F 63 °F (1990)
Min Temperature 32 °F 26 °F -6 °F (1913)
Degree Days  
Heating Degree Days 27 29  
Month to date heating degree days 316 294  
Since 1 July heating degree days 1786 2051  
Cooling Degree Days 0 0  
Month to date cooling degree days 0 0  
Year to date cooling degree days 0 0  
Moisture  
Dew Point 27 °F    
Average Humidity 70    
Maximum Humidity 82    
Minimum Humidity 57    
Precipitation  
Precipitation 0.00 in 0.02 in 0.19 in (1957)
Month to date precipitation 0.04 0.13  
Year to date precipitation 0.04 0.13  
Snow  
Snow 0.00 in - - ()
Month to date snowfall 0.6  
Since 1 July snowfall 1.8  
Snow Depth 0.00 in    
Sea Level Pressure  
Sea Level Pressure 30.16 in    
Wind  
Wind Speed 6 mph (SSE)    
Max Wind Speed 12 mph    
Max Gust Speed 16 mph    
Visibility 10 miles    
Events      
T = Trace of Precipitation, MM = Missing Value Source: NWS Daily Summary

Daily Weather History Graph

Daily Weather History Graph

Search for Another Location

Airport or City:

Trip Planner

Search our weather history database for the weather conditions in past years. The results will help you decide how hot, cold, wet, or windy it might be!

Date:

Astronomy

Jan. 10, 2015 Rise Set
Actual Time 7:14 AM MST 5:13 PM MST
Civil Twilight 6:47 AM MST 5:40 PM MST
Nautical Twilight 6:15 AM MST 6:12 PM MST
Astronomical Twilight 5:45 AM MST 6:42 PM MST
Moon 10:30 PM MST (1/10) 10:14 AM MST (1/10)
Length of Visible Light 10h 53m
Length of Day
9h 58m
Waning Gibbous, 74% of the Moon is Illuminated
Jan 10
Waning Gibbous
Jan 13
Last Quarter
Jan 20
New
Jan 26
First Quarter
Feb 3
Full

Hourly Weather History & Observations

Time (MST) Temp. Windchill Dew Point Humidity Pressure Visibility Wind Dir Wind Speed Gust Speed Precip Events Conditions
12:52 AM 34.0 °F - 24.1 °F 67% 30.25 in 10.0 mi Calm Calm - N/A   Overcast
1:52 AM 33.1 °F - 24.1 °F 70% 30.25 in 10.0 mi Calm Calm - N/A   Mostly Cloudy
2:52 AM 32.0 °F 26.4 °F 24.1 °F 73% 30.24 in 10.0 mi North 5.8 mph - N/A   Overcast
3:52 AM 32.0 °F 27.5 °F 24.1 °F 73% 30.22 in 10.0 mi NNE 4.6 mph - N/A   Overcast
4:52 AM 33.1 °F 30.0 °F 24.1 °F 70% 30.22 in 10.0 mi NW 3.5 mph - N/A   Overcast
5:52 AM 32.0 °F 27.5 °F 24.1 °F 73% 30.22 in 10.0 mi North 4.6 mph - N/A   Overcast
6:52 AM 33.1 °F 28.7 °F 25.0 °F 72% 30.21 in 10.0 mi North 4.6 mph - N/A   Mostly Cloudy
7:52 AM 33.1 °F 30.0 °F 25.0 °F 72% 30.23 in 10.0 mi WNW 3.5 mph - N/A   Mostly Cloudy
8:52 AM 35.1 °F - 25.0 °F 67% 30.24 in 10.0 mi Calm Calm - N/A   Mostly Cloudy
9:52 AM 36.0 °F - 26.1 °F 67% 30.24 in 10.0 mi Calm Calm - N/A   Mostly Cloudy
10:52 AM 37.0 °F 31.6 °F 27.0 °F 67% 30.21 in 10.0 mi SSW 6.9 mph - N/A   Scattered Clouds
11:52 AM 39.9 °F 33.9 °F 28.0 °F 63% 30.15 in 10.0 mi South 9.2 mph - N/A   Scattered Clouds
12:52 PM 41.0 °F 35.2 °F 28.0 °F 60% 30.10 in 10.0 mi SSW 9.2 mph - N/A   Partly Cloudy
1:52 PM 43.0 °F 37.2 °F 28.9 °F 58% 30.08 in 10.0 mi SW 10.4 mph - N/A   Scattered Clouds
2:52 PM 43.0 °F 38.2 °F 30.0 °F 60% 30.06 in 10.0 mi South 8.1 mph - N/A   Partly Cloudy
3:52 PM 44.1 °F 40.1 °F 30.0 °F 58% 30.06 in 10.0 mi South 6.9 mph - N/A   Partly Cloudy
4:52 PM 43.0 °F 37.2 °F 30.0 °F 60% 30.06 in 10.0 mi South 10.4 mph - N/A   Partly Cloudy
5:52 PM 39.9 °F 35.8 °F 30.0 °F 68% 30.09 in 10.0 mi South 5.8 mph - N/A   Partly Cloudy
6:52 PM 34.0 °F 27.2 °F 28.0 °F 79% 30.11 in 10.0 mi ESE 8.1 mph - N/A   Partly Cloudy
7:52 PM 33.1 °F 27.7 °F 28.0 °F 82% 30.12 in 10.0 mi ESE 5.8 mph - N/A   Partly Cloudy
8:52 PM 34.0 °F 28.0 °F 28.9 °F 82% 30.11 in 10.0 mi ESE 6.9 mph - N/A   Partly Cloudy
9:52 PM 34.0 °F 28.0 °F 28.9 °F 82% 30.12 in 10.0 mi ESE 6.9 mph - N/A   Mostly Cloudy
10:52 PM 37.0 °F 33.3 °F 30.0 °F 76% 30.10 in 10.0 mi SSE 4.6 mph - N/A   Mostly Cloudy
11:52 PM 34.0 °F 28.8 °F 28.9 °F 82% 30.10 in 10.0 mi SE 5.8 mph - N/A   Mostly Cloudy